[[{"header":{"parameterUnit":"m.s-1","parameterCategory":1,"la1":30.2991,"la2":30.254,"lo1":-89.0895,"lo2":-89.0444,"dy":0.0017,"dx":0.0017,"nx":28,"ny":28,"refTime":"2024-06-26T03:00:00:Z","depth":0,"parameterNumber":2,"parameterNumberName":"U-component_of_WINDS"},"data":[0,0,0,0,0,0,0,0,0,0,0,0,0,0,0,0,0,0,0,0,0,0,0,0,0,0,0,0,0,0,0,0,0,0,0,0,0,0,0,0,0,0,0,0,0,0,0,0,0,0,0,0,0,0,0,0,0,0,5.4342,5.4343,0,5.4387,5.4388,5.4388,5.4325,5.4322,5.432,5.4318,5.4361,5.4364,5.4367,0,0,0,0,0,0,0,0,0,0,0,0,0,5.4202,5.4205,5.4342,5.4343,5.4344,5.4387,5.4388,5.4388,5.4325,5.4322,5.432,5.4317,5.436,5.4364,5.4368,0,0,0,0,0,0,0,0,0,0,0,0,0,5.4256,5.4206,5.4342,5.4317,5.4316,5.4387,5.4388,5.4388,5.4326,5.4322,5.4319,5.4316,5.4359,5.4363,5.4368,5.4465,0,0,5.4383,5.4385,0,0,0,0,0,0,0,0,5.4253,5.4261,5.432,5.4319,5.4317,5.4347,5.4354,5.4414,5.4326,5.4322,5.4318,5.4314,5.4359,5.4364,5.4379,5.4467,5.4469,5.4383,5.4386,5.4389,5.439,0,0,0,0,0,0,0,5.4249,5.4259,5.436,5.4321,5.432,5.4304,5.4308,5.4365,5.4358,5.4322,5.4317,5.4324,5.4357,5.4375,5.438,5.447,5.4383,5.4388,5.4391,5.4393,5.4643,5.4646,0,0,0,0,0,0,5.4249,5.4256,5.4359,5.4361,5.4276,5.4309,5.4313,5.4341,5.4358,5.4357,5.4326,5.4321,5.4368,5.4374,5.4381,5.4498,5.4388,5.4393,5.4396,5.4639,5.4644,5.4648,0,0,0,0,0,0,5.4246,5.4259,5.4357,5.4308,5.4319,5.4315,5.4346,5.4343,5.4361,5.4361,5.436,5.4345,5.4366,5.4374,5.4446,5.4499,5.4395,5.44,5.4635,5.4641,5.4646,5.4732,0,0,0,0,0,0,5.4242,5.4258,5.4295,5.4309,5.4322,5.4421,5.4349,5.4347,5.437,5.4362,5.4379,5.4378,5.4364,5.4439,5.4451,5.4503,5.4403,5.463,5.4637,5.4644,5.4724,5.4739,5.4753,0,0,0,0,0,5.4238,5.4316,5.4297,5.431,5.4368,5.4424,5.4432,5.4414,5.4374,5.4411,5.4412,5.4378,5.4491,5.4447,5.4459,5.4514,5.4627,5.4635,5.4643,5.4718,5.4736,5.4752,0,0,0,0,0,0,5.4306,5.4317,5.4296,5.4382,5.4403,5.4414,5.446,5.4434,5.4466,5.4458,5.4434,5.4438,5.4516,5.4522,5.4473,5.4611,5.4552,5.4563,5.4604,5.4622,5.4636,5.4633,5.4407,0,0,0,0,0,5.4332,5.4377,5.4384,5.4459,5.4471,5.4464,5.4488,5.4473,5.4493,5.4501,5.4507,5.4528,5.4568,5.4595,5.4632,5.4724,5.4728,5.4769,5.4783,5.4795,5.4805,5.4857,5.4876,5.4675,5.4675,5.4675,0,0,5.4384,5.4396,5.4426,5.4473,5.4488,5.4536,5.4472,5.4524,5.4559,5.4509,5.4578,5.4583,5.4604,5.4688,5.4725,5.4695,5.4861,5.4805,5.4815,5.4819,5.4868,5.4887,5.4904,5.4681,5.468,5.4679,0,0,5.4505,5.4518,5.4583,5.4599,5.4623,5.4618,5.4634,5.4649,5.4652,5.4721,5.4685,5.4726,5.4795,5.4813,5.4831,5.4961,5.4932,5.4974,5.5049,5.51,5.5116,5.513,5.5178,5.5196,5.4984,5.4984,5.4984,0,5.4567,5.4638,5.4619,5.4676,5.4698,5.4656,5.4723,5.4739,5.4773,5.479,5.4757,5.4845,5.4856,5.4944,5.4977,5.4992,5.501,5.4972,5.5115,5.5129,5.5142,5.5188,5.5206,5.4989,5.4989,5.4988,5.4988,0,5.4715,5.4765,5.4814,5.4851,5.4879,5.494,5.493,5.4961,5.4944,5.4943,5.5015,5.5027,5.5068,5.5087,5.507,5.5174,5.5155,5.5119,5.506,5.5166,5.5209,5.5226,5.4997,5.4995,5.4993,5.4992,0,0,5.4879,5.4906,5.4925,5.4942,5.4966,5.5005,5.5064,5.5105,5.5133,5.5158,5.5208,5.5269,5.5237,5.5257,5.5242,5.5287,5.5392,5.5245,5.5245,5.5274,5.551,5.5538,5.5559,5.5372,5.5375,5.5378,5.5508,0,5.5001,5.5106,5.5092,5.5192,5.524,5.5201,5.5254,5.5274,5.5275,5.5315,5.5316,5.5361,5.5313,5.5326,5.5368,5.537,5.5439,5.536,5.542,5.5422,5.5417,5.5581,5.561,5.5733,5.5525,5.5528,5.553,0,5.5158,5.5192,5.5298,5.5317,5.5336,5.5384,5.5421,5.546,5.5483,5.548,5.5505,5.5483,5.5543,5.5482,5.5565,5.5512,5.5535,5.5541,5.5545,5.5551,5.5483,5.5593,5.5771,5.579,5.5556,5.5553,5.5552,0,5.527,5.5342,5.5415,5.5431,5.5454,5.5489,5.55,5.552,5.5546,5.5579,5.5596,5.5634,5.5656,5.5686,5.5675,5.5632,5.5762,5.5699,5.5762,5.5763,5.5792,5.5791,5.5979,5.5805,5.5804,5.5804,5.5804,0,5.541,5.5476,5.5466,5.5512,5.5586,5.5569,5.5643,5.5649,5.5668,5.5714,5.5682,5.5726,5.5708,5.575,5.5742,5.5813,5.5823,5.5823,5.582,5.5827,5.5827,5.5843,5.5835,5.5809,5.5808,5.5807,5.5806,0,5.5548,5.5544,5.5622,5.5639,5.5645,5.5699,5.5713,5.5756,5.5755,5.5814,5.5827,5.5826,5.5875,5.5867,5.592,5.5914,5.6005,5.599,5.5998,5.5995,5.6059,5.6054,5.6265,5.6293,5.6099,5.6101,5.6103,0,5.5638,5.5689,5.5712,5.5742,5.5757,5.5804,5.5831,5.5817,5.5846,5.5878,5.5917,5.5964,5.6,5.608,5.6084,5.6125,5.6113,5.6184,5.6119,5.6125,5.6117,5.6115,5.612,5.6197,5.62,5.6201,5.6203,0,5.5799,5.5795,5.5836,5.5878,5.5912,5.5944,5.5972,5.5998,5.5986,5.6021,5.6072,5.61,5.6157,5.6204,5.6243,5.6254,5.6228,5.6223,5.6241,5.6249,5.6252,5.6253,5.6035,5.6219,5.6217,5.6216,5.6215,5.6214,5.5917,5.5962,5.5986,5.6034,5.6054,5.6082,5.6124,5.613,5.6172,5.6218,5.6206,5.6265,5.6288,5.6338,5.6354,5.6399,5.6372,5.6397,5.6403,5.641,5.6419,5.6244,5.6405,5.6405,5.6404,5.6404,5.6404,0,5.6078,5.6093,5.6137,5.6179,5.6217,5.619,5.622,5.6254,5.6306,5.633,5.6368,5.6427,5.6473,5.6481,5.6525,5.656,5.6549,5.6572,5.657,5.6574,5.6439,5.642,5.6581,5.658,5.658,5.658,5.658,5.658,5.6167,5.6242,5.6241,5.6327,5.634,5.6398,5.6418,5.6444,5.6464,5.6532,5.6571,5.6577,5.6595,5.664,5.6682,5.6683,5.6701,5.673,5.6727,5.66,5.6583,5.6566,5.6549,5.6733,5.6734,5.6858,5.6859,5.686]},{"header":{"parameterUnit":"m.s-1","parameterCategory":1,"la1":30.2991,"la2":30.254,"lo1":-89.0895,"lo2":-89.0444,"dy":0.0017,"dx":0.0017,"nx":28,"ny":28,"refTime":"2024-06-26T03:00:00:Z","depth":0,"parameterNumber":3,"parameterNumberName":"V-component_of_WINDS"},"data":[0,0,0,0,0,0,0,0,0,0,0,0,0,0,0,0,0,0,0,0,0,0,0,0,0,0,0,0,0,0,0,0,0,0,0,0,0,0,0,0,0,0,0,0,0,0,0,0,0,0,0,0,0,0,0,0,0,0,0.0651,0.0653,0,0.085,0.0853,0.0855,0.0922,0.0921,0.092,0.0919,0.1133,0.1139,0.1145,0,0,0,0,0,0,0,0,0,0,0,0,0,0.0334,0.0339,0.0651,0.0653,0.0656,0.085,0.0853,0.0856,0.0922,0.0921,0.092,0.0919,0.1131,0.1138,0.1146,0,0,0,0,0,0,0,0,0,0,0,0,0,0.0496,0.0341,0.065,0.0712,0.0719,0.0849,0.0853,0.0856,0.0922,0.0921,0.0919,0.0918,0.1128,0.1137,0.1147,0.1233,0,0,0.1177,0.1181,0,0,0,0,0,0,0,0,0.0487,0.0508,0.07,0.0708,0.0716,0.086,0.0819,0.0983,0.0922,0.0845,0.0919,0.0918,0.1043,0.106,0.1101,0.1243,0.1252,0.1178,0.1184,0.1188,0.1191,0,0,0,0,0,0,0,0.0476,0.05,0.073,0.0703,0.0713,0.0732,0.0753,0.0851,0.095,0.0852,0.0857,0.0879,0.1048,0.1091,0.1106,0.1256,0.1177,0.1186,0.1192,0.1196,0.1477,0.1479,0,0,0,0,0,0,0.0453,0.049,0.0724,0.0736,0.0596,0.0738,0.0763,0.0815,0.0949,0.0968,0.088,0.0882,0.1075,0.1095,0.1114,0.1223,0.1188,0.1197,0.1202,0.1476,0.1478,0.148,0,0,0,0,0,0,0.0446,0.0473,0.0716,0.0614,0.0647,0.0745,0.0804,0.082,0.0863,0.097,0.0989,0.0906,0.1075,0.11,0.1202,0.1231,0.1201,0.121,0.1474,0.1476,0.1479,0.1441,0,0,0,0,0,0,0.0436,0.047,0.0502,0.0614,0.0652,0.0798,0.0805,0.0825,0.0879,0.0882,0.0999,0.1017,0.1076,0.1187,0.1212,0.1244,0.1218,0.1472,0.1475,0.1478,0.144,0.1442,0.1444,0,0,0,0,0,0.0425,0.0486,0.0504,0.0532,0.0694,0.08,0.0821,0.0885,0.0881,0.0915,0.0983,0.1014,0.1223,0.1197,0.1225,0.1261,0.147,0.1474,0.1478,0.144,0.1442,0.1444,0,0,0,0,0,0,0.0379,0.0502,0.0523,0.0622,0.0699,0.0811,0.0856,0.0885,0.0968,0.0969,0.1047,0.1072,0.1168,0.1225,0.1193,0.1351,0.1349,0.1358,0.131,0.1313,0.1314,0.1299,0.1226,0,0,0,0,0,0.038,0.0453,0.0558,0.0635,0.0672,0.0757,0.0806,0.0847,0.0932,0.0966,0.1042,0.1125,0.121,0.1265,0.1349,0.1448,0.1475,0.1487,0.1488,0.1489,0.1497,0.1553,0.1559,0.1492,0.1492,0.1492,0,0,0.0384,0.046,0.0502,0.0628,0.0693,0.0769,0.0785,0.0865,0.0923,0.098,0.1079,0.1137,0.1236,0.1336,0.1385,0.1387,0.1521,0.1494,0.1494,0.1501,0.1557,0.1564,0.1569,0.1494,0.1494,0.1493,0,0,0.0429,0.0494,0.0565,0.0628,0.0725,0.078,0.0796,0.0903,0.0943,0.1043,0.1087,0.1158,0.1302,0.137,0.1423,0.149,0.1521,0.1515,0.1525,0.1578,0.1584,0.1589,0.1613,0.162,0.1523,0.1523,0.1523,0,0.0423,0.0536,0.0598,0.0675,0.0729,0.078,0.0853,0.0913,0.1033,0.107,0.107,0.125,0.132,0.1436,0.1452,0.1494,0.1516,0.1503,0.1577,0.1583,0.1589,0.1613,0.1621,0.1521,0.1521,0.1521,0.1522,0,0.0523,0.0601,0.0647,0.0757,0.0817,0.0892,0.0966,0.102,0.1055,0.1111,0.1212,0.1297,0.1398,0.1429,0.1466,0.155,0.1548,0.1561,0.1561,0.1593,0.1616,0.1626,0.1519,0.152,0.152,0.152,0,0,0.0549,0.0689,0.0705,0.0755,0.0863,0.0926,0.1003,0.1098,0.1142,0.1223,0.129,0.1409,0.1421,0.1481,0.1527,0.1574,0.1621,0.1581,0.1585,0.1586,0.1718,0.1708,0.1717,0.1641,0.1643,0.1644,0.171,0,0.0609,0.0745,0.0801,0.0913,0.0985,0.1033,0.11,0.1175,0.1228,0.13,0.136,0.1443,0.1453,0.1489,0.1537,0.1604,0.1648,0.16,0.1706,0.1709,0.168,0.173,0.172,0.1777,0.172,0.1721,0.1722,0,0.0697,0.0774,0.0891,0.0988,0.1021,0.108,0.1171,0.1237,0.1323,0.1359,0.1424,0.1466,0.155,0.1542,0.166,0.1625,0.1672,0.1711,0.1715,0.1728,0.1718,0.1745,0.1798,0.1806,0.1738,0.1736,0.1735,0,0.0703,0.0836,0.0923,0.0964,0.108,0.112,0.1171,0.1255,0.1308,0.1388,0.1423,0.1513,0.1563,0.1633,0.1698,0.1686,0.1809,0.1807,0.1842,0.1841,0.1868,0.1865,0.1929,0.1896,0.1896,0.1896,0.1895,0,0.0765,0.0835,0.0927,0.098,0.106,0.1124,0.1202,0.1257,0.1331,0.1397,0.1445,0.1506,0.1588,0.1661,0.1713,0.1802,0.1824,0.1857,0.187,0.1853,0.1848,0.1885,0.1883,0.1898,0.1897,0.1897,0.1897,0,0.0786,0.085,0.0948,0.1048,0.1075,0.1129,0.1216,0.127,0.1324,0.1407,0.1431,0.1517,0.1605,0.1676,0.1792,0.1827,0.192,0.1935,0.189,0.1897,0.1928,0.1924,0.2018,0.2033,0.1989,0.1989,0.1989,0,0.0821,0.0875,0.098,0.1025,0.1074,0.1148,0.1201,0.1267,0.132,0.142,0.1463,0.1553,0.1628,0.1766,0.1841,0.1929,0.1947,0.1974,0.1961,0.1941,0.1948,0.1944,0.1949,0.1975,0.1976,0.1976,0.1976,0,0.0877,0.0905,0.0978,0.1061,0.1122,0.1191,0.1263,0.1298,0.1377,0.1435,0.1523,0.1581,0.1696,0.1786,0.1881,0.1936,0.197,0.1978,0.1991,0.1975,0.1947,0.1962,0.1893,0.1977,0.1977,0.1977,0.1977,0.1976,0.0907,0.0956,0.1036,0.1115,0.1175,0.1239,0.1294,0.1353,0.1427,0.1524,0.1558,0.1649,0.1732,0.1863,0.1918,0.1991,0.1995,0.2013,0.2018,0.2022,0.2019,0.1933,0.2009,0.2009,0.2009,0.2009,0.2009,0,0.0965,0.1017,0.1089,0.1185,0.1247,0.1268,0.1348,0.1399,0.1476,0.155,0.1622,0.1722,0.1808,0.1887,0.1977,0.202,0.2038,0.2042,0.204,0.2052,0.2011,0.1991,0.2026,0.2026,0.2026,0.2026,0.2026,0.2026,0.1002,0.1087,0.1124,0.1238,0.1292,0.1377,0.142,0.148,0.1539,0.1648,0.1718,0.1767,0.1844,0.1939,0.2019,0.204,0.2072,0.2072,0.2097,0.2058,0.2055,0.2053,0.2034,0.2078,0.2078,0.2132,0.2132,0.2133]}]]